Temperature
9 9 9 9 9 9 9 9 10 10 10 10 10 10 10 11 11 11 11 11 11 11 11 11 11 11 11 11 11 11 11 11 11 11 10 10 10 10 10 10 10 10 10
8 8 8 8 8 9 9 9 9 9 9 9 9 10 10 10 10 10 10 11 11 11 11 11 11 11 11 11 11 11 11 11 10 10 10 10 10 10 10 10 10 10 10
8 8 8 8 8 8 8 8 8 9 9 9 9 9 9 10 10 10 10 10 10 10 10 10 10 10 10 10 10 10 10 10 10 10 10 10 10 10 10 10 10 10 10
7 7 7 7 7 8 8 8 8 8 8 8 9 9 9 9 9 10 10 10 10 10 10 10 10 10 10 10 10 10 10 10 10 10 10 10 10 10 10 10 10 10 10
7 7 7 7 7 7 7 7 7 7 8 8 8 8 8 9 9 9 9 9 9 10 10 10 10 10 10 10 10 10 10 10 10 10 9 9 9 9 9 9 9 9 9
6 6 6 6 6 6 6 7 7 7 7 7 7 8 8 8 8 8 9 9 9 9 9 9 9 9 10 10 10 9 9 9 9 9 9 9 9 9 9 9 9 9 9
5 5 5 6 6 6 6 6 6 6 6 7 7 7 7 8 8 8 8 8 9 9 9 9 9 9 9 9 9 9 9 9 9 9 9 9 9 9 9 9 9 9 9
5 5 5 5 5 5 5 5 6 6 6 6 6 6 6 7 7 7 8 8 8 8 8 9 9 9 9 9 9 9 9 9 9 9 9 9 9 9 9 9 9 9 8
4 4 4 4 4 4 5 5 5 5 5 6 5 5 6 6 6 7 7 7 7 8 8 8 8 8 8 8 8 9 9 8 8 8 8 8 8 8 8 8 8 9 9
3 3 4 4 4 4 4 4 4 5 5 5 5 5 5 6 6 6 7 7 7 7 7 8 8 8 8 8 8 8 8 8 8 8 8 8 8 8 8 8 8 8 8
3 3 3 3 3 3 3 4 4 4 4 4 5 5 5 5 5 5 6 6 6 7 7 7 7 7 8 8 8 8 8 8 8 8 8 8 8 8 8 8 8 8 8
2 2 2 2 3 3 3 3 3 3 3 4 4 4 4 5 5 5 5 6 6 6 6 7 7 7 7 7 7 7 7 7 7 7 7 7 8 8 8 8 8 8 8
1 2 2 2 2 2 2 2 3 3 3 3 3 4 4 4 5 5 5 5 5 6 6 6 6 6 7 7 7 7 7 7 7 7 7 7 7 7 7 7 7 7 8
1 1 1 1 1 1 2 2 2 2 2 3 3 3 3 4 4 4 4 4 4 5 5 5 6 6 6 6 6 6 6 7 7 7 7 7 7 7 7 7 7 7 7
-0 -0 0 0 1 1 1 1 1 2 2 2 2 3 3 3 3 3 4 4 4 3 4 5 5 5 5 5 6 6 6 6 6 6 6 6 6 6 7 7 7 7 7
-1 -1 -1 -0 -0 -0 0 0 1 1 1 2 2 2 2 3 3 3 3 3 3 3 3 4 4 5 5 5 5 5 5 6 6 6 6 6 6 6 6 6 6 6 6
-2 -1 -1 -1 -1 -1 -1 -0 0 0 1 1 1 2 2 2 2 2 2 3 3 3 3 3 4 4 4 4 4 5 5 5 5 5 5 5 5 5 6 5 6 6 6
-2 -2 -2 -2 -2 -1 -1 -1 -1 -0 0 0 1 1 1 1 2 2 2 2 2 2 2 3 3 3 3 3 4 4 4 4 5 5 5 5 5 5 5 5 5 5 5
-3 -3 -3 -3 -2 -2 -2 -2 -1 -1 -0 -0 0 0 1 1 1 1 1 2 2 2 2 2 2 3 3 3 3 3 3 4 4 4 4 4 4 4 5 5 5 5 5
-4 -3 -3 -3 -3 -3 -3 -2 -2 -2 -1 -1 -1 -0 0 1 1 1 1 1 1 1 1 1 2 2 2 2 2 2 2 3 3 4 4 4 4 4 4 4 4 5 5
-4 -4 -4 -4 -4 -4 -3 -3 -3 -2 -2 -2 -1 -1 -0 -0 0 0 0 1 1 1 1 1 1 1 1 1 1 2 2 2 3 3 3 3 3 4 4 4 4 4 4
-5 -5 -5 -4 -4 -4 -4 -4 -4 -3 -3 -3 -2 -2 -1 -1 -1 -1 -0 -0 0 0 0 0 0 0 1 1 1 1 1 1 1 2 2 3 3 3 3 3 3 4 4
-5 -5 -5 -5 -5 -5 -5 -4 -4 -4 -4 -3 -3 -3 -2 -2 -2 -1 -1 -1 -1 -1 -0 -0 -0 -0 0 1 1 1 1 1 1 2 1 2 2 3 3 3 3 3 3
-6 -6 -6 -6 -5 -5 -5 -5 -5 -5 -5 -4 -4 -4 -3 -3 -2 -2 -2 -2 -1 -1 -1 -1 -1 -0 -0 -0 0 0 0 0 1 1 1 1 2 2 2 3 2 3 3
-7 -6 -6 -6 -6 -6 -6 -6 -6 -5 -5 -5 -4 -4 -4 -4 -3 -3 -3 -3 -2 -2 -2 -1 -1 -1 -1 -1 -1 -0 -0 -0 -0 0 0 0 1 1 2 2 2 2 2
-7 -7 -7 -7 -7 -6 -6 -6 -6 -6 -6 -5 -5 -5 -4 -4 -4 -3 -3 -3 -3 -3 -2 -2 -2 -2 -2 -1 -1 -1 -1 -1 -1 -1 -0 -0 -0 0 0 1 1 2 2
Wind_Speed
1 2 2 2 3 3 3 3 3 3 3 3 2 2 2 2 2 2 3 5 6 7 7 8 8 8 8 9 9 8 9 9 9 8 8 8 8 8 7 8 7 8 8
2 1 1 2 2 2 2 2 2 2 2 2 2 2 1 1 2 2 2 4 6 7 7 8 8 8 8 9 8 8 8 9 9 8 8 8 8 7 7 7 6 7 7
2 2 1 1 2 2 2 2 3 2 2 2 2 1 1 1 1 1 2 3 4 6 7 7 8 8 8 8 8 8 9 9 8 7 7 7 7 7 7 6 6 6 6
2 1 1 1 1 1 1 1 1 1 1 1 1 1 1 1 1 1 2 3 4 4 5 6 7 7 8 8 8 8 9 8 8 8 7 7 7 7 7 6 6 6 6
2 2 1 2 1 1 1 1 1 0 0 1 1 1 1 0 0 1 1 3 4 4 4 5 6 7 7 8 8 8 8 8 7 8 7 6 6 7 7 7 7 6 6
2 2 2 2 2 1 0 0 0 1 0 0 1 1 1 1 0 1 1 1 2 3 4 4 5 6 7 7 7 8 7 7 6 7 7 7 6 7 8 8 8 7 6
2 2 2 2 2 1 1 1 1 0 0 0 1 1 2 1 1 2 1 0 1 3 3 3 4 4 5 7 7 8 7 7 7 6 7 8 8 7 8 8 9 8 8
2 1 1 1 1 1 1 1 1 1 1 1 1 1 1 1 1 2 2 2 1 2 2 3 4 4 5 5 7 8 7 8 8 7 7 7 8 8 8 8 9 9 9
2 2 2 2 2 1 2 3 2 2 2 2 1 2 2 2 1 2 3 3 2 2 2 3 4 5 5 5 6 8 8 8 8 8 7 7 8 9 9 9 8 9 10
3 3 3 3 2 2 3 3 3 3 3 3 2 2 2 1 1 1 2 2 3 4 3 3 4 5 6 6 6 7 9 9 9 9 8 8 8 8 9 10 9 9 9
4 4 3 3 3 3 3 3 3 3 3 4 3 2 2 2 2 2 3 3 3 4 4 4 5 5 6 7 6 7 8 9 10 10 10 9 9 9 9 9 10 10 11
4 4 4 4 4 4 4 4 4 4 4 4 4 3 3 2 3 2 3 4 4 3 3 4 4 4 5 6 6 6 8 9 9 10 11 11 10 10 10 9 9 11 11
3 4 5 4 4 5 5 5 4 4 5 5 5 5 5 4 3 3 3 3 3 2 2 3 4 4 4 5 6 6 8 9 9 11 12 11 10 10 10 11 11 10 10
4 5 5 5 6 6 6 5 4 5 5 6 6 6 5 5 4 3 3 3 3 2 3 3 3 5 4 5 7 7 7 9 9 9 11 11 11 10 10 10 11 11 10
4 5 5 5 5 6 5 5 4 6 5 6 6 6 5 5 4 4 3 4 4 4 5 4 3 3 4 6 7 7 7 9 10 10 9 10 11 10 10 10 11 11 11
5 5 5 5 5 5 6 5 5 5 5 6 6 7 7 5 5 4 4 4 4 4 5 3 3 3 4 5 7 7 8 9 10 10 10 10 11 11 11 11 11 12 12
4 5 5 6 6 6 6 5 5 6 6 6 6 7 8 6 6 5 5 5 4 3 5 5 3 3 4 4 5 6 8 8 9 10 11 11 11 12 12 12 11 12 12
5 5 5 5 6 6 6 6 7 7 7 7 7 7 7 6 7 6 6 7 6 5 5 6 5 4 5 6 5 5 6 7 8 10 11 12 11 11 12 12 12 12 13
6 6 5 6 6 7 6 6 7 7 8 8 8 8 8 7 8 6 7 7 6 6 5 5 6 5 4 4 5 5 5 5 7 9 10 12 12 12 12 13 13 13 14
6 6 6 6 7 7 7 7 7 7 7 8 8 8 8 9 9 8 8 7 6 6 6 6 6 5 5 4 5 5 5 4 5 6 8 10 11 12 13 14 14 14 14
7 7 6 7 6 6 7 7 7 8 7 7 8 8 7 8 10 9 8 7 7 7 7 7 6 5 5 5 6 5 6 5 5 4 5 6 7 8 10 13 14 15 15
6 7 7 7 7 7 10 11 9 7 7 7 8 7 7 8 9 10 10 10 9 9 8 7 7 8 8 7 6 6 5 5 5 3 4 6 5 6 7 10 13 15 15
7 7 7 7 8 8 11 12 11 7 7 7 7 6 7 7 8 7 9 10 10 11 11 9 8 9 8 8 8 8 7 7 7 5 4 7 5 7 7 11 13 14 14
7 7 7 7 7 8 11 11 11 7 6 7 7 7 7 7 7 7 6 7 7 8 9 8 8 9 7 6 8 9 9 7 5 4 4 6 6 6 6 9 12 13 13
7 7 7 7 7 8 10 11 10 6 6 7 7 7 7 7 10 9 7 7 7 7 9 10 9 8 9 9 7 5 6 6 6 5 4 4 4 4 4 6 8 11 12
7 7 7 6 7 7 9 10 9 5 6 6 6 7 9 9 10 10 7 7 8 7 6 5 6 7 6 6 8 7 7 7 5 4 4 4 3 2 3 3 4 6 8
Wind_Direction
14 12 18 25 17 17 12 10 24 23 20 25 44 75 84 110 117 119 144 155 156 158 158 155 153 148 151 152 150 148 147 145 141 138 136 135 133 129 126 127 120 117 113
358 2 360 359 353 357 360 1 12 25 14 19 19 47 69 109 140 130 149 152 159 161 163 163 161 160 158 159 159 159 155 153 145 143 143 145 143 143 142 135 133 131 123
351 344 319 325 334 330 355 17 19 40 36 23 11 17 38 61 121 140 151 144 153 160 165 166 169 167 166 162 161 160 157 156 153 149 153 153 153 154 155 154 151 147 138
352 357 339 303 318 334 11 25 33 37 33 14 351 339 0 45 115 144 136 145 142 145 161 170 170 172 171 167 164 164 162 160 162 162 162 165 167 168 168 171 165 158 150
360 0 341 324 334 10 22 352 2 83 66 355 321 324 309 341 286 129 109 131 132 133 145 166 171 173 177 179 176 174 167 164 165 170 172 173 177 180 180 181 176 169 165
360 12 349 343 349 358 348 9 301 335 191 240 297 310 291 260 234 173 176 122 139 145 148 154 164 178 181 180 182 182 179 176 175 179 184 184 184 188 189 188 186 183 182
349 6 353 348 352 278 239 225 240 229 302 23 16 342 328 266 214 222 224 175 166 165 158 157 166 174 182 188 191 185 187 190 189 191 193 196 197 198 200 199 196 195 195
327 336 355 315 316 302 281 232 211 232 246 183 155 156 303 292 254 242 226 212 224 183 173 180 175 180 183 190 196 189 191 197 196 200 202 204 208 210 210 207 205 203 202
305 310 307 302 284 248 252 254 224 209 223 227 200 180 185 224 272 250 227 217 220 224 209 194 194 196 190 190 198 199 195 200 203 207 210 211 215 218 216 213 213 211 208
301 298 289 282 273 264 251 257 255 236 207 220 233 253 242 205 211 253 254 236 240 237 223 214 214 207 198 193 205 208 202 202 210 214 217 220 222 223 223 220 219 220 217
303 298 288 279 272 269 261 259 261 251 227 223 226 235 255 256 234 217 241 245 256 236 226 218 215 214 206 203 206 215 215 212 217 222 224 226 229 228 228 228 225 225 224
304 304 298 286 276 274 270 263 259 251 243 236 236 222 217 213 214 213 234 238 244 238 238 221 217 215 208 205 215 225 224 224 226 228 229 229 231 232 232 232 232 230 228
291 288 296 287 283 279 273 269 257 257 251 241 238 233 227 231 227 221 225 244 258 257 234 234 225 215 210 212 221 228 232 235 236 235 233 232 231 232 233 233 234 233 234
274 285 291 286 285 286 282 271 262 258 256 246 246 240 234 234 229 225 216 226 251 251 238 234 227 212 222 228 235 232 239 240 241 242 241 238 235 233 233 232 232 234 234
287 291 294 291 287 284 281 275 262 260 256 251 247 243 239 236 229 229 218 212 208 228 234 229 231 221 237 239 243 239 246 243 241 243 247 245 235 231 231 232 232 231 230
290 292 289 287 282 278 276 268 266 271 261 257 250 240 236 238 234 229 222 223 214 217 240 235 238 249 241 251 247 240 242 252 243 243 244 244 238 230 229 232 234 234 229
291 285 282 283 279 272 269 264 263 268 260 261 260 248 239 237 233 229 225 225 224 219 241 259 253 232 226 240 251 243 244 245 247 243 242 243 241 232 228 231 233 233 231
289 283 278 274 276 274 263 260 263 266 258 254 256 253 243 239 238 231 228 227 223 222 229 249 265 238 231 227 233 240 249 246 247 246 242 241 241 236 230 231 234 236 234
291 288 281 271 272 273 264 258 256 258 255 251 250 250 242 232 237 234 234 232 226 230 226 235 253 249 240 229 234 249 248 249 250 250 244 241 241 241 237 235 237 237 234
289 282 278 276 274 275 272 264 260 259 256 253 252 251 246 234 231 230 235 232 226 223 224 229 241 244 238 230 221 229 249 250 254 257 251 247 247 245 241 239 238 236 234
292 284 281 281 279 275 273 266 259 258 256 254 254 252 254 250 240 235 238 228 224 222 223 228 234 240 237 224 226 224 244 255 256 246 245 242 244 243 243 245 241 238 236
289 283 278 279 280 278 284 282 274 265 260 258 259 261 260 261 252 246 246 242 233 227 224 228 233 233 234 229 227 233 237 250 254 229 237 249 235 243 241 243 246 243 238
289 283 279 278 276 277 285 284 281 275 268 263 261 263 265 266 258 242 246 246 243 244 240 232 233 235 235 230 223 230 232 237 249 242 248 252 238 245 248 249 250 245 240
286 283 280 277 278 282 288 286 283 277 268 265 261 259 262 261 261 246 240 237 238 241 245 241 233 236 240 237 228 230 232 240 263 255 227 246 240 243 255 249 247 241 243
288 283 279 274 275 283 290 288 284 271 266 265 263 260 263 256 265 255 239 239 244 250 255 253 257 254 254 254 251 237 224 227 249 246 218 227 238 250 249 244 244 241 243
292 291 290 279 274 277 287 288 284 271 269 266 264 262 266 264 264 258 237 232 240 246 246 251 252 255 252 252 252 240 228 227 236 239 216 215 222 213 246 243 230 237 242
Height
1525 1525 1526 1526 1527 1527 1527 1528 1528 1529 1529 1530 1531 1532 1532 1534 1535 1535 1536 1537 1539 1539 1540 1541 1542 1543 1544 1545 1545 1546 1547 1548 1548 1549 1549 1550 1551 1551 1552 1553 1553 1554 1554
1523 1523 1524 1524 1525 1525 1526 1526 1526 1527 1528 1528 1529 1530 1530 1531 1533 1533 1534 1535 1537 1538 1539 1540 1541 1542 1543 1544 1544 1545 1546 1547 1548 1548 1549 1550 1550 1551 1552 1552 1553 1553 1554
1520 1521 1521 1522 1523 1523 1524 1524 1525 1525 1526 1526 1527 1527 1528 1529 1530 1531 1532 1533 1534 1535 1537 1538 1539 1540 1541 1542 1543 1544 1545 1546 1547 1547 1548 1549 1549 1550 1551 1552 1552 1553 1553
1518 1519 1519 1519 1520 1521 1521 1522 1522 1523 1523 1524 1524 1525 1526 1527 1528 1529 1529 1531 1532 1533 1534 1536 1537 1538 1539 1540 1541 1542 1543 1544 1545 1546 1547 1547 1548 1549 1550 1551 1551 1552 1553
1516 1516 1516 1517 1517 1518 1518 1519 1520 1520 1521 1521 1522 1522 1523 1524 1525 1526 1527 1528 1529 1530 1532 1533 1535 1536 1537 1538 1539 1540 1541 1542 1543 1544 1545 1546 1547 1547 1548 1549 1550 1551 1551
1513 1513 1513 1514 1515 1515 1515 1516 1517 1518 1518 1519 1519 1520 1520 1521 1522 1523 1524 1525 1527 1528 1529 1531 1532 1533 1535 1536 1537 1538 1539 1540 1541 1542 1543 1544 1545 1546 1546 1547 1548 1549 1550
1509 1510 1510 1510 1511 1512 1512 1513 1513 1514 1515 1516 1516 1517 1517 1518 1519 1520 1521 1522 1523 1525 1526 1528 1529 1530 1531 1533 1534 1535 1537 1538 1539 1540 1541 1542 1543 1543 1544 1545 1546 1547 1548
1506 1506 1507 1507 1508 1508 1509 1510 1510 1510 1511 1513 1514 1514 1514 1516 1515 1516 1518 1519 1520 1522 1523 1524 1526 1527 1528 1530 1531 1533 1534 1535 1536 1537 1538 1539 1540 1541 1542 1543 1544 1545 1545
1502 1503 1503 1504 1504 1505 1505 1506 1506 1507 1507 1509 1511 1512 1512 1511 1511 1512 1513 1515 1516 1517 1519 1521 1522 1524 1525 1526 1528 1529 1531 1532 1533 1534 1535 1536 1537 1538 1539 1540 1541 1542 1543
1499 1499 1500 1500 1501 1501 1502 1502 1503 1503 1504 1504 1506 1508 1509 1509 1509 1508 1509 1510 1512 1513 1515 1516 1518 1520 1521 1523 1524 1526 1527 1528 1529 1531 1532 1533 1534 1535 1536 1537 1538 1539 1539
1496 1496 1496 1496 1496 1497 1497 1498 1498 1499 1499 1500 1501 1502 1504 1505 1505 1505 1504 1506 1508 1509 1510 1512 1514 1515 1517 1518 1520 1521 1523 1524 1526 1527 1528 1529 1530 1531 1532 1533 1534 1535 1536
1491 1492 1492 1492 1492 1492 1493 1493 1494 1494 1495 1496 1497 1498 1499 1500 1501 1501 1501 1501 1502 1504 1505 1507 1509 1510 1512 1514 1515 1517 1519 1520 1521 1522 1524 1525 1526 1527 1528 1528 1529 1530 1531
1486 1487 1487 1487 1488 1488 1488 1489 1489 1489 1490 1491 1492 1493 1495 1496 1497 1498 1498 1498 1498 1499 1501 1502 1504 1506 1507 1509 1510 1512 1514 1515 1516 1518 1519 1520 1521 1522 1523 1524 1525 1526 1527
1482 1482 1482 1482 1483 1483 1483 1484 1484 1484 1485 1486 1487 1488 1489 1490 1492 1493 1494 1495 1494 1494 1496 1497 1499 1500 1502 1503 1505 1507 1508 1510 1511 1512 1513 1515 1516 1517 1518 1519 1520 1521 1522
1477 1477 1477 1477 1478 1478 1478 1478 1478 1479 1479 1480 1481 1482 1483 1485 1487 1488 1489 1490 1491 1490 1490 1492 1493 1495 1497 1498 1499 1501 1502 1504 1505 1506 1508 1509 1510 1511 1512 1514 1515 1515 1517
1472 1472 1472 1472 1472 1472 1472 1472 1473 1473 1473 1473 1475 1476 1477 1479 1481 1482 1483 1485 1485 1486 1486 1486 1488 1490 1492 1493 1494 1495 1497 1498 1499 1500 1502 1503 1504 1505 1507 1508 1509 1510 1511
1467 1466 1466 1466 1466 1466 1467 1467 1466 1467 1467 1468 1469 1469 1471 1472 1474 1475 1477 1478 1479 1481 1480 1481 1483 1484 1486 1487 1488 1490 1491 1492 1493 1494 1496 1497 1498 1499 1500 1502 1503 1504 1505
1462 1461 1461 1461 1461 1460 1460 1460 1460 1460 1461 1461 1462 1463 1464 1466 1467 1469 1470 1472 1473 1474 1475 1474 1476 1478 1479 1481 1482 1484 1485 1486 1487 1488 1489 1491 1492 1493 1494 1495 1496 1497 1499
1456 1456 1456 1455 1454 1454 1454 1454 1454 1454 1454 1454 1455 1457 1458 1460 1460 1462 1463 1465 1466 1468 1469 1470 1469 1471 1473 1475 1476 1478 1479 1480 1481 1482 1483 1484 1485 1486 1487 1488 1490 1491 1492
1451 1451 1450 1449 1448 1448 1448 1447 1447 1447 1447 1448 1449 1450 1451 1452 1453 1455 1456 1458 1459 1461 1463 1464 1464 1465 1467 1468 1470 1471 1472 1473 1474 1475 1476 1478 1478 1479 1481 1482 1483 1484 1485
1446 1446 1445 1443 1443 1442 1442 1442 1441 1441 1441 1441 1443 1443 1444 1445 1446 1448 1450 1451 1453 1454 1456 1457 1458 1458 1459 1461 1462 1464 1465 1465 1466 1468 1469 1470 1471 1472 1473 1475 1476 1477 1478
1441 1441 1439 1438 1437 1437 1436 1436 1436 1435 1435 1435 1435 1436 1437 1438 1440 1441 1443 1444 1446 1447 1448 1450 1450 1451 1452 1454 1456 1458 1458 1459 1459 1461 1462 1462 1464 1464 1465 1467 1468 1470 1471
1436 1435 1433 1432 1431 1431 1431 1431 1431 1430 1430 1429 1430 1430 1430 1432 1433 1434 1435 1437 1438 1440 1442 1443 1444 1444 1446 1448 1450 1451 1452 1452 1453 1454 1456 1454 1456 1456 1458 1460 1461 1462 1464
1431 1429 1428 1427 1426 1425 1425 1425 1425 1425 1424 1423 1423 1424 1424 1425 1426 1428 1428 1429 1430 1432 1434 1436 1437 1438 1440 1442 1444 1445 1446 1446 1447 1449 1450 1448 1449 1450 1451 1453 1454 1455 1457
1425 1424 1423 1422 1421 1420 1420 1420 1420 1419 1418 1417 1417 1418 1418 1419 1420 1422 1423 1423 1424 1425 1428 1430 1431 1432 1434 1436 1437 1439 1439 1440 1439 1440 1443 1443 1442 1443 1444 1445 1447 1448 1450
1421 1419 1418 1417 1416 1415 1414 1414 1414 1413 1412 1412 1412 1412 1412 1413 1414 1415 1416 1416 1417 1418 1421 1422 1424 1425 1427 1428 1430 1431 1432 1433 1433 1433 1435 1436 1436 1437 1437 1438 1440 1442 1443